Location: Çayiçi
(36.4667°N, 30.2333°E)
Time: 01:40:50
(UTC+00:00)

Nadezhda 2 Rocket - Pass Details

Date: 09 February 2023
Orbit: 947 x 1011 km, 83.0° (Epoch: 01 April)

Event Time Altitude Azimuth Distance (km) Brightness Sun altitude
Rises 15:54:42 0° 354° (N) 3,645 7.4 -5.0°
Reaches altitude 10° 15:57:13 10° 356° (N) 2,689 6.7 -5.5°
Maximum altitude 16:03:22 81° 84° (E) 964 4.4 -6.7°
Drops below altitude 10° 16:09:27 10° 171° (S) 2,659 6.9 -7.9°
Sets 16:11:55 0° 173° (S) 3,602 7.5 -8.4°
